EHI
0 0 0 0 0 0 0 0 0 0 0 0 0 0 0 0 0 0 0 0 0 0 0 0 0 0 0 0 0 1 2 1 1 2 5 11 14 13 8 5 2 1 0 0
0 0 0 0 0 0 0 0 0 0 0 0 0 0 0 0 0 0 0 0 0 0 0 0 0 0 0 0 0 1 1 0 0 2 5 10 14 14 10 6 3 1 0 0
0 0 0 0 0 0 0 0 0 0 0 0 0 0 0 0 0 0 0 0 0 0 0 0 0 0 0 0 0 1 0 0 0 1 4 10 15 18 16 11 7 2 0 0
0 0 0 0 0 0 0 0 0 0 0 0 0 0 0 0 0 0 0 0 0 0 0 0 0 0 0 0 0 0 0 0 0 1 3 8 15 20 20 19 13 5 1 0
0 0 0 0 0 0 0 0 0 0 0 0 0 0 0 0 0 0 0 0 0 0 0 0 0 0 0 0 0 0 0 0 0 0 2 5 11 17 19 19 15 7 2 0
0 0 0 0 0 0 0 0 0 0 0 0 0 0 0 0 0 0 0 0 0 0 0 0 0 0 0 0 0 0 0 0 0 0 0 2 7 11 14 14 11 7 4 1
0 0 0 0 0 0 0 0 0 0 0 0 0 0 0 0 0 0 0 0 0 0 0 0 0 0 0 0 0 0 0 0 0 0 0 1 3 6 9 9 7 5 4 2
0 0 0 0 0 0 0 0 0 0 0 0 0 0 0 0 0 0 0 0 0 0 0 0 0 0 0 0 0 0 0 0 0 0 0 0 1 3 4 4 3 3 2 1
0 0 0 0 0 0 0 0 0 0 0 0 0 0 0 0 0 0 0 0 0 0 0 0 0 0 0 0 0 0 0 0 0 0 0 0 0 1 1 0 1 1 1 0
0 0 0 0 0 0 0 0 0 0 0 0 0 0 0 0 0 0 0 0 0 0 0 0 0 0 0 0 0 0 0 0 0 0 0 0 0 0 0 0 0 0 0 0
0 0 0 0 0 0 0 0 0 0 0 0 0 0 0 0 0 0 0 0 0 0 0 0 0 0 0 0 0 0 0 0 0 0 0 0 0 0 0 0 0 0 0 0
0 0 0 0 0 0 0 0 0 0 0 0 0 0 0 0 0 0 0 0 0 0 0 0 0 0 0 0 0 0 0 0 0 0 0 0 0 0 0 0 0 0 0 0
0 0 0 0 0 0 0 0 0 0 0 0 0 0 0 0 0 0 0 0 0 0 0 0 0 0 0 0 0 0 0 0 0 0 0 0 0 0 0 0 0 0 0 0
0 0 0 0 0 0 0 0 0 0 0 0 0 0 0 0 0 0 0 0 0 0 0 0 0 0 0 0 0 0 0 0 0 0 0 0 0 0 0 0 0 0 0 0
0 0 0 0 0 0 0 0 0 0 0 0 0 0 0 0 0 0 0 0 0 0 0 0 0 0 0 0 0 0 0 0 0 0 0 0 0 0 0 0 0 0 0 0
0 0 0 0 0 0 0 0 0 0 0 0 0 0 0 0 0 0 0 0 0 0 0 0 0 0 0 0 0 0 0 0 0 0 0 0 0 0 0 0 0 0 0 0
0 0 0 0 0 0 0 0 0 0 0 0 0 0 0 0 0 0 0 0 0 0 0 0 0 0 0 0 0 0 0 0 0 0 0 0 0 0 0 0 0 0 0 0
0 0 0 0 0 0 0 0 0 0 0 0 0 0 0 0 0 0 0 0 0 0 0 0 0 0 0 0 0 0 0 0 0 0 0 0 0 0 0 0 0 0 0 0
0 0 0 0 0 0 0 0 0 0 0 0 0 0 0 0 0 0 0 0 0 0 0 0 0 0 0 0 0 0 0 0 0 0 0 0 0 0 0 0 0 0 0 0
0 0 0 0 0 0 0 0 0 0 0 0 0 0 0 0 0 0 0 0 0 0 0 0 0 0 0 0 0 0 0 0 0 0 0 0 0 0 0 0 0 0 0 0
0 0 0 0 0 0 0 0 0 0 0 0 0 0 0 0 0 0 0 0 0 0 0 0 0 0 0 0 0 0 0 0 0 0 0 0 0 0 0 0 0 0 0 0
0 0 0 0 0 0 0 0 0 0 0 0 0 0 0 0 0 0 0 0 0 0 0 0 0 0 0 0 0 0 0 0 0 0 0 0 0 0 0 0 0 0 0 0
0 0 0 0 0 0 0 0 0 0 0 0 0 0 0 0 0 0 0 0 0 0 0 0 0 0 0 0 0 0 0 0 0 0 0 0 0 0 0 0 0 0 0 0
0 0 0 0 0 0 0 0 0 0 0 0 0 0 0 0 0 0 0 0 0 0 0 0 0 0 0 0 0 0 0 0 0 0 0 0 0 0 0 0 0 0 0 0
0 0 0 0 0 0 0 0 0 0 0 0 0 0 0 0 0 0 0 0 0 0 0 0 0 0 0 0 0 0 0 0 0 0 0 0 0 0 0 0 0 0 0 0
0 0 0 0 0 0 0 0 0 0 0 0 0 0 0 0 0 0 0 0 0 0 0 0 0 0 0 0 0 0 0 0 0 0 0 0 0 0 0 0 0 0 0 0
Wind_Speed
6 9 7 7 7 4 4 4 3 2 5 6 9 10 11 13 15 15 14 13 13 13 12 12 12 11 10 10 9 9 9 8 6 2 2 3 4 5 5 5 6 6 6 7
8 8 5 6 9 8 8 6 5 4 5 4 9 11 10 14 15 13 13 13 14 14 15 14 14 13 12 11 10 8 8 7 6 4 3 3 3 3 4 4 4 5 5 6
9 3 6 11 11 9 5 4 3 4 5 4 6 6 10 11 14 16 16 14 15 15 15 15 14 12 12 11 11 9 8 8 7 7 3 1 1 1 1 3 4 5 6 6
8 5 9 10 8 6 4 5 5 4 3 3 3 2 6 9 14 18 16 15 15 14 13 13 13 13 12 11 10 8 8 8 8 7 4 3 4 5 6 4 4 4 5 6
5 4 8 7 5 6 5 7 5 3 1 2 5 4 4 7 13 16 15 15 14 14 13 13 12 11 10 10 10 9 9 8 8 7 6 4 3 4 3 3 5 4 3 4
5 3 4 3 4 5 6 6 6 6 6 5 5 4 5 8 11 14 14 14 14 14 13 12 11 10 9 9 9 9 9 9 8 8 6 4 2 2 3 4 5 4 3 3
5 6 4 4 6 8 9 7 7 9 7 2 3 6 4 7 9 11 13 13 13 12 12 11 11 10 10 10 9 9 8 8 8 8 7 6 3 0 2 3 4 4 3 3
3 5 6 6 4 3 5 5 5 2 1 2 5 4 1 6 8 9 10 11 11 12 11 11 11 9 9 9 9 8 8 7 8 7 6 6 5 2 2 2 2 3 2 3
5 3 2 5 6 4 4 3 2 4 2 3 3 2 2 7 10 11 12 13 13 13 12 12 11 9 8 8 8 8 7 7 7 7 6 6 6 5 5 4 4 4 3 3
5 5 1 3 6 7 3 1 5 4 3 2 1 2 6 12 13 13 13 12 13 12 11 12 11 10 8 7 7 7 6 6 6 7 6 5 6 5 5 5 5 4 4 3
4 6 4 5 5 5 6 5 4 4 3 3 1 2 4 8 9 11 11 11 11 11 11 10 9 9 8 7 7 7 7 7 7 6 6 6 6 5 5 5 5 4 4 3
3 6 3 1 1 2 4 3 3 4 2 3 2 2 5 6 8 9 10 10 10 9 9 9 9 8 8 7 7 7 7 7 6 6 5 5 5 5 6 5 5 5 4 4
4 7 4 3 6 6 5 5 3 5 4 3 2 2 4 5 7 8 9 9 9 8 8 7 7 7 7 7 7 6 6 6 6 6 6 6 6 6 6 5 5 5 4 4
5 5 5 5 4 1 2 4 4 5 4 3 0 2 5 6 7 8 9 8 7 7 7 6 6 6 6 6 6 7 6 6 6 7 7 7 7 6 5 5 5 5 5 5
6 4 2 3 3 4 4 4 5 5 4 4 3 3 5 6 6 7 7 7 6 7 7 7 6 5 5 6 6 6 7 7 7 7 7 7 6 6 6 7 6 6 7 7
4 4 2 2 3 5 4 4 5 4 3 3 1 3 5 5 4 5 6 6 6 7 7 7 6 5 4 5 5 5 6 6 6 7 7 7 7 7 7 7 7 7 7 7
3 5 4 2 3 2 1 3 3 3 3 4 4 5 3 2 4 4 4 4 4 6 6 6 6 4 3 2 3 4 4 5 6 6 7 7 7 7 7 7 7 7 6 6
5 4 4 3 3 2 5 3 5 5 4 5 4 4 3 4 3 4 3 2 4 5 6 6 6 5 2 2 2 3 4 5 5 6 6 6 6 7 6 7 7 6 4 4
4 5 4 4 2 1 2 4 5 5 3 5 4 3 2 2 2 5 4 2 3 4 4 4 4 2 2 1 2 3 4 4 5 5 5 5 6 6 7 7 6 5 4 5
4 5 4 4 3 5 8 6 5 4 2 5 5 3 3 3 2 4 5 3 4 4 4 4 4 3 3 1 2 3 2 3 3 3 3 4 5 6 6 6 5 5 5 5
1 2 2 3 3 6 4 6 7 4 8 5 6 5 4 4 5 5 4 3 3 4 4 4 4 4 2 0 2 2 1 1 1 3 4 4 4 5 5 5 5 5 6 6
7 4 4 4 3 7 5 8 8 9 4 6 6 6 5 3 2 1 2 3 4 5 5 5 4 4 3 1 1 1 1 1 2 4 5 5 5 5 5 6 6 6 6 6
6 8 7 8 8 6 7 8 7 6 7 6 6 5 5 3 1 0 1 2 4 5 5 4 4 4 4 2 1 0 2 1 4 4 4 4 5 5 5 6 6 5 5 5
3 4 4 2 4 3 5 4 5 6 7 7 6 6 5 3 1 1 0 2 4 4 4 4 4 5 4 3 2 1 1 3 6 5 4 3 4 4 5 5 5 5 5 5
6 5 4 3 3 2 4 5 7 7 7 7 6 5 5 4 2 2 1 1 2 3 4 4 4 4 4 3 3 3 2 5 6 4 4 3 3 4 4 4 4 4 4 3
6 8 9 9 10 9 10 9 8 9 9 9 8 6 5 4 3 2 1 1 1 2 3 4 4 3 3 2 3 3 2 5 6 4 3 3 3 2 2 3 3 5 4 6
Wind_Direction
46 54 55 51 56 78 70 71 29 10 4 42 67 64 46 42 45 39 30 23 14 12 9 10 15 17 20 19 17 16 9 1 357 333 250 213 209 204 199 196 192 188 184 181
55 47 64 68 46 47 48 49 12 335 349 48 83 68 51 45 43 36 29 17 8 4 4 4 7 10 13 12 8 5 0 350 342 319 278 232 215 215 203 194 181 180 177 176
89 38 44 49 32 23 25 37 343 317 348 21 101 61 35 33 34 30 24 17 10 3 359 357 0 4 5 6 0 356 350 343 333 322 299 264 196 203 199 203 188 182 173 171
69 18 43 44 22 10 333 324 320 312 6 327 44 102 26 6 18 16 10 7 0 354 354 353 355 354 356 353 349 347 345 343 335 329 311 253 213 206 205 199 185 180 172 166
78 42 47 36 2 3 307 306 309 299 151 41 16 97 18 2 7 2 358 356 352 348 347 345 345 341 343 343 345 344 345 346 341 336 324 288 243 224 202 177 168 168 154 159
68 53 55 5 346 355 335 355 23 42 68 55 343 81 32 4 349 343 346 345 341 341 339 338 336 339 341 342 344 344 345 344 344 343 343 329 271 223 186 178 176 167 154 152
40 17 12 4 4 358 23 44 30 21 27 21 19 73 42 341 345 339 337 335 338 339 339 339 339 341 343 343 341 340 345 343 344 351 357 355 349 339 181 177 172 161 156 149
97 11 10 12 17 354 17 80 107 114 307 330 28 56 340 340 339 337 337 338 344 344 343 340 339 340 340 337 338 341 343 344 349 357 0 5 12 30 53 85 119 131 130 125
120 105 76 51 28 50 23 15 150 139 61 62 40 10 308 345 347 349 349 350 350 345 343 342 340 342 338 334 334 340 348 353 358 3 9 19 25 36 50 64 78 86 91 100
125 122 44 20 21 16 55 36 57 70 82 62 32 8 336 334 338 340 343 345 343 341 342 345 345 343 340 334 334 348 359 1 5 11 17 26 29 37 49 62 71 76 80 81
79 108 17 27 30 0 7 21 58 80 102 116 55 348 322 311 319 326 328 328 330 336 337 335 338 341 343 344 351 359 0 6 10 13 17 24 25 30 45 52 59 64 66 69
59 102 76 39 292 59 52 28 82 109 67 81 108 299 294 300 304 313 320 321 323 328 327 328 336 345 349 353 356 1 4 10 9 10 21 25 25 31 37 37 43 52 52 46
86 101 92 353 337 358 26 11 55 107 93 74 82 298 296 305 307 310 312 316 323 329 328 331 337 343 351 357 360 4 7 9 13 18 25 27 28 33 32 26 30 38 44 39
98 85 134 163 213 229 43 28 46 88 99 104 83 278 303 310 310 316 317 319 324 330 330 335 339 343 348 359 8 11 11 11 19 25 27 28 25 27 29 32 35 36 41 47
89 95 127 158 155 121 107 87 71 80 125 138 199 254 273 284 290 300 307 316 334 341 345 350 354 352 358 10 15 17 18 18 22 30 30 25 24 28 34 38 43 46 49 55
90 119 117 121 138 117 98 106 103 96 111 132 195 267 258 274 292 303 311 323 343 345 350 355 360 5 16 23 21 24 23 19 26 33 31 29 33 36 37 39 47 54 53 54
90 121 121 180 179 101 73 190 157 150 174 174 203 242 258 289 304 306 312 331 338 340 343 347 353 3 22 35 39 39 30 29 35 34 31 30 35 38 35 42 46 48 49 52
116 113 126 130 134 251 249 216 157 158 199 208 219 240 233 231 262 288 295 320 339 339 341 340 344 355 10 40 43 48 41 39 37 33 30 31 36 36 32 37 40 39 42 47
120 126 111 115 147 275 261 202 175 168 224 218 207 230 219 213 5 328 306 309 312 317 325 322 326 344 18 58 84 75 48 38 39 34 33 32 39 41 38 37 32 28 37 40
63 88 106 122 155 231 238 206 162 119 248 236 185 179 162 108 63 284 293 314 333 334 329 334 345 7 24 36 124 96 63 44 41 44 50 46 45 48 43 38 34 32 41 41
4 37 115 164 212 255 241 148 120 159 230 198 165 162 153 168 203 244 293 337 345 337 333 348 2 2 345 287 138 112 81 359 35 67 69 57 53 56 49 41 34 35 39 41
174 173 200 165 202 251 189 140 176 211 177 150 152 160 161 186 220 279 354 356 355 346 342 352 360 349 337 332 142 135 268 261 90 84 76 59 48 52 51 48 39 34 36 40
184 186 184 185 211 232 179 186 197 155 148 155 158 165 155 151 169 11 6 353 350 348 344 344 352 351 350 352 141 216 280 146 114 102 91 74 63 52 47 50 45 37 33 37
253 153 135 203 256 204 187 169 152 155 155 161 158 155 148 152 152 99 10 342 347 344 340 341 356 3 352 343 347 321 331 126 124 121 119 104 85 66 50 45 44 46 35 32
219 166 157 214 232 177 222 192 163 151 146 148 151 152 157 154 146 153 202 325 338 339 336 347 355 354 347 350 0 5 61 116 120 125 130 125 106 96 74 59 44 42 31 24
196 173 174 209 199 179 205 199 169 153 161 161 159 164 169 165 171 163 199 277 320 340 345 354 354 356 357 11 13 18 69 122 127 129 140 148 142 126 113 100 61 28 25 21